Location: Beutels
(47.8767°N, 9.8584°E)
Time: 07:32:49
(UTC+00:00)

CZ-4B R/B - Pass Details

Date: 19 May 2025
Orbit: 701 x 797 km, 98.9° (Epoch: 22 June)

Event Time Altitude Azimuth Distance (km) Brightness Sun altitude
Rises 19:32:46 0° 168° (SSE) 3,081 6.2 -5.7°
Reaches altitude 10° 19:35:00 10° 170° (S) 2,174 5.4 -6.0°
Maximum altitude 19:39:45 75° 256° (WSW) 747 3.6 -6.6°
Drops below altitude 10° 19:44:39 10° 342° (NNW) 2,236 7.0 -7.2°
Sets 19:46:58 0° 344° (NNW) 3,177 7.8 -7.5°
